This is the latest recevied weather packets stored in our database for station/object N8AMF. If no packets are shown the sender has not sent any weather packets the latest 10 day(s).
| Time | Temp. | Humidity | Pressure | Rain* | Wind** | Luminosity | Snow |
|---|---|---|---|---|---|---|---|
| 1778005458 | 16.11° C | 78% | 1007 hPa | 0 mm | - | 82 W/m² | - |
| 1778005155 | 16.67° C | 77% | 1006.7 hPa | 0 mm | - | 110 W/m² | - |
| 1778004852 | 16.67° C | 76% | 1006.8 hPa | 0 mm | - | 209 W/m² | - |
| 1778004549 | 16.67° C | 75% | 1006.8 hPa | 0 mm | - | 190 W/m² | - |
| 1778004245 | 16.67° C | 75% | 1006.9 hPa | 0 mm | - | 148 W/m² | - |
| 1778003942 | 16.67° C | 74% | 1006.7 hPa | 0 mm | - | 75 W/m² | - |
| 1778003638 | 17.22° C | 73% | 1006.9 hPa | 0 mm | - | 103 W/m² | - |
| 1778003334 | 17.22° C | 73% | 1006.7 hPa | 0 mm | - | 117 W/m² | - |
| 1778003032 | 17.78° C | 72% | 1006.9 hPa | 0 mm | - | 93 W/m² | - |
| 1778002728 | 17.78° C | 72% | 1006.6 hPa | 0 mm | - | 112 W/m² | - |
| 1778002425 | 17.78° C | 70% | 1006.6 hPa | 0 mm | - | 225 W/m² | - |
| 1778002122 | 18.33° C | 71% | 1006.6 hPa | 0 mm | - | 296 W/m² | - |
| 1778001820 | 17.78° C | 70% | 1006.6 hPa | 0 mm | - | 343 W/m² | - |
| 1778001519 | 17.78° C | 71% | 1006.5 hPa | 0 mm | - | 242 W/m² | - |
| 1778001217 | 17.78° C | 71% | 1006.7 hPa | 0 mm | - | 459 W/m² | - |
| 1778000913 | 17.22° C | 72% | 1006.5 hPa | 0 mm | - | 220 W/m² | - |
| 1778000610 | 17.78° C | 71% | 1006.5 hPa | 0 mm | - | 104 W/m² | - |
| 1778000305 | 17.78° C | 71% | 1006.6 hPa | 0 mm | - | 163 W/m² | - |
| 1778000001 | 17.78° C | 71% | 1006.6 hPa | 0 mm | - | 169 W/m² | - |
| 1777999697 | 17.78° C | 70% | 1006.5 hPa | 0 mm | - | 211 W/m² | - |
| 1777999394 | 17.78° C | 69% | 1006.6 hPa | 0 mm | - | 127 W/m² | - |
| 1777999092 | 18.33° C | 68% | 1006.4 hPa | 0 mm | - | 175 W/m² | - |
| 1777998791 | 18.33° C | 67% | 1006.4 hPa | 0 mm | - | 282 W/m² | - |
| 1777998489 | 18.33° C | 68% | 1006.3 hPa | 0 mm | - | 137 W/m² | - |
| 1777998184 | 18.33° C | 67% | 1006.4 hPa | 0 mm | - | 114 W/m² | - |
* Rain latest hour (hover to see other rain measurements)
** Current wind speed in m/s (hover to see current wind gust speed)